SCP
0 0 0 0 0 0 0 0 0 0 0 0 0 0 0 0 0 0 0 0 0 0
0 0 0 0 0 0 0 0 0 0 0 0 0 0 0 0 0 0 0 0 0 0
0 0 0 0 0 0 0 0 0 0 0 0 0 0 0 0 0 0 0 0 0 0
0 0 0 0 0 0 0 0 0 0 0 0 0 0 0 0 0 0 0 0 0 0
0 0 0 0 0 0 0 0 0 0 0 0 0 0 0 0 0 0 0 0 0 0
0 0 0 0 0 0 0 0 0 0 0 0 0 0 0 0 0 0 0 0 0 0
0 0 0 0 0 0 0 0 0 0 0 0 0 0 0 0 0 0 0 0 0 0
0 0 0 0 0 0 0 0 0 0 0 0 0 0 0 0 0 0 0 0 0 0
0 0 0 0 0 0 0 0 0 0 0 0 0 0 0 0 0 0 0 0 0 0
0 0 0 0 0 0 0 0 0 0 0 0 0 0 0 0 0 0 0 0 0 0
0 0 0 0 0 0 0 0 0 0 0 0 0 0 0 0 0 0 0 0 0 0
0 0 0 0 0 0 0 0 0 0 0 0 0 0 0 0 0 0 0 0 0 0
0 0 0 0 0 0 0 0 0 0 0 0 0 0 0 0 0 0 0 0 0 0
0 0 0 0 0 0 0 0 0 0 0 0 0 0 0 0 0 0 0 0 0 0
Wind_Speed_500mb
68 69 70 70 69 65 66 65 61 59 57 59 61 65 69 71 73 73 74 76 75 75
73 71 70 69 67 68 68 64 60 56 54 53 55 58 62 68 72 76 75 77 80 86
74 72 69 67 67 68 65 61 58 56 56 54 53 52 55 57 58 62 70 72 73 77
64 65 66 68 67 66 64 63 59 56 57 56 55 50 53 56 61 69 67 62 60 63
56 59 63 65 66 66 67 65 62 55 58 51 50 52 59 57 60 59 57 58 55 61
49 52 56 59 61 62 62 61 55 55 56 56 50 58 60 57 64 57 56 53 55 53
36 39 43 46 49 51 53 54 54 55 51 53 54 58 65 66 58 54 51 49 52 45
22 25 27 29 31 33 36 38 43 47 51 56 56 63 56 45 51 53 54 51 41 40
21 22 23 24 26 28 31 32 34 36 40 44 46 41 37 42 44 46 47 41 39 35
22 22 22 23 25 28 30 31 32 33 34 33 33 33 33 32 28 21 16 19 17 18
24 24 24 24 23 21 17 15 14 14 14 12 11 9 9 13 16 18 16 14 16 19
30 28 27 24 20 15 12 7 6 4 3 8 8 6 7 12 10 11 15 19 20 22
34 30 26 21 17 11 6 5 3 3 4 7 8 9 9 14 19 22 20 19 21 23
32 28 22 18 14 12 11 11 8 10 8 11 15 17 19 20 21 20 20 19 20 20
Wind_Direction_500mb
253 256 258 260 261 264 268 270 270 269 268 269 269 270 269 267 266 265 263 262 259 260
253 256 260 263 267 268 270 272 274 275 274 272 272 270 272 272 272 271 270 266 265 261
253 258 261 266 266 269 272 273 273 276 277 277 275 276 276 273 274 273 271 272 273 274
252 257 260 262 265 267 269 270 271 273 273 273 275 273 272 271 273 273 276 277 276 280
248 251 253 257 262 265 268 270 269 267 265 267 269 272 267 268 272 273 276 275 277 281
247 250 254 257 260 262 265 268 265 265 264 263 265 266 264 267 271 273 276 274 276 276
243 246 248 252 256 260 262 263 263 261 257 260 261 263 268 272 272 274 274 278 283 282
235 241 246 249 253 256 257 258 258 257 254 255 259 265 273 264 264 268 275 279 276 284
231 236 242 248 255 259 260 258 256 255 257 260 263 262 260 264 265 265 270 280 278 277
235 239 244 249 252 254 254 256 259 260 259 260 257 259 257 260 266 254 255 279 291 299
241 242 244 245 245 244 241 243 255 256 247 243 231 229 244 255 262 243 224 232 259 280
239 238 241 242 242 238 235 225 219 221 210 241 247 261 256 229 229 252 263 270 286 291
236 235 235 233 225 213 197 179 192 219 236 265 252 245 251 266 278 278 283 293 287 278
230 230 229 224 214 202 201 202 216 233 233 242 249 261 266 268 264 268 269 270 280 282
Wind_Speed_850mb
68 69 70 70 69 65 66 65 61 59 57 59 61 65 69 71 73 73 74 76 75 75
73 71 70 69 67 68 68 64 60 56 54 53 55 58 62 68 72 76 75 77 80 86
74 72 69 67 67 68 65 61 58 56 56 54 53 52 55 57 58 62 70 72 73 77
64 65 66 68 67 66 64 63 59 56 57 56 55 50 53 56 61 69 67 62 60 63
56 59 63 65 66 66 67 65 62 55 58 51 50 52 59 57 60 59 57 58 55 61
49 52 56 59 61 62 62 61 55 55 56 56 50 58 60 57 64 57 56 53 55 53
36 39 43 46 49 51 53 54 54 55 51 53 54 58 65 66 58 54 51 49 52 45
22 25 27 29 31 33 36 38 43 47 51 56 56 63 56 45 51 53 54 51 41 40
21 22 23 24 26 28 31 32 34 36 40 44 46 41 37 42 44 46 47 41 39 35
22 22 22 23 25 28 30 31 32 33 34 33 33 33 33 32 28 21 16 19 17 18
24 24 24 24 23 21 17 15 14 14 14 12 11 9 9 13 16 18 16 14 16 19
30 28 27 24 20 15 12 7 6 4 3 8 8 6 7 12 10 11 15 19 20 22
34 30 26 21 17 11 6 5 3 3 4 7 8 9 9 14 19 22 20 19 21 23
32 28 22 18 14 12 11 11 8 10 8 11 15 17 19 20 21 20 20 19 20 20
Wind_Direction_850mb
253 256 258 260 261 264 268 270 270 269 268 269 269 270 269 267 266 265 263 262 259 260
253 256 260 263 267 268 270 272 274 275 274 272 272 270 272 272 272 271 270 266 265 261
253 258 261 266 266 269 272 273 273 276 277 277 275 276 276 273 274 273 271 272 273 274
252 257 260 262 265 267 269 270 271 273 273 273 275 273 272 271 273 273 276 277 276 280
248 251 253 257 262 265 268 270 269 267 265 267 269 272 267 268 272 273 276 275 277 281
247 250 254 257 260 262 265 268 265 265 264 263 265 266 264 267 271 273 276 274 276 276
243 246 248 252 256 260 262 263 263 261 257 260 261 263 268 272 272 274 274 278 283 282
235 241 246 249 253 256 257 258 258 257 254 255 259 265 273 264 264 268 275 279 276 284
231 236 242 248 255 259 260 258 256 255 257 260 263 262 260 264 265 265 270 280 278 277
235 239 244 249 252 254 254 256 259 260 259 260 257 259 257 260 266 254 255 279 291 299
241 242 244 245 245 244 241 243 255 256 247 243 231 229 244 255 262 243 224 232 259 280
239 238 241 242 242 238 235 225 219 221 210 241 247 261 256 229 229 252 263 270 286 291
236 235 235 233 225 213 197 179 192 219 236 265 252 245 251 266 278 278 283 293 287 278
230 230 229 224 214 202 201 202 216 233 233 242 249 261 266 268 264 268 269 270 280 282